Regional Weather Roundup
Issued by NWS Bismarck, ND

Home | Current Version | Previous Version | Text Only | Print | Product List | Glossary On
Versions: 1 2 3 4 5 6 7 8 9 10 11 12 13 14 15 16 17 18 19 20 21 22 23 24 25 26 27 28 29 30 31 32 33 34 35 36 37 38 39 40 41 42 43 44 45 46 47 48 49 50
000
ASUS43 KBIS 311602
RWRBIS

NWR BROADCAST TEXT
NATIONAL WEATHER SERVICE BISMARCK ND
1100 AM CDT TUE MAY 31 2016

NOTE: "FAIR" INDICATES FEW OR NO CLOUDS BELOW 12,000 FEET WITH NO
SIGNIFICANT WEATHER AND/OR OBSTRUCTIONS TO VISIBILITY.


CITY           SKY/WX    TMP DP  RH WIND       PRES   REMARKS
WILLISTON      LGT RAIN  53  48  83 N30G41    29.74R
MINOT          SUNNY     62  48  60 SW18      29.61F
MINOT AFB      SUNNY     59  51  73 W18       29.59F
BISMARCK       CLOUDY    57  47  69 W15G24    29.73F
DICKINSON      LGT RAIN  50  47  89 W22       29.71F
GARRISON         N/A     57  50  77 W16       29.65F
HETTINGER ARPT CLOUDY    53  44  71 W29G39    29.80F
JAMESTOWN      MOSUNNY   60  47  61 W21G28    29.72F
CARRINGTON     CLOUDY    57  50  77 W16G22    29.71F
HAZEN          CLOUDY    55  48  76 W17G23    29.69F
MANDAN         CLOUDY    54  46  76 W22G28    29.72F
OAKES            N/A    N/A N/A N/A MISG        N/A
STANLEY        LGT RAIN  52  52 100 N15       29.63F
$$

CITY           SKY/WX    TMP DP  RH WIND       PRES   REMARKS
GRAND FORKS    CLOUDY    67  57  70 SW14      29.68S
GRAND FORKS AF CLOUDY    64  56  76 SW12G20   29.68S
DEVILS LAKE    CLOUDY    57  53  86 SW17      29.67R
FARGO          CLOUDY    64  54  69 SW18G26   29.75R
CAVALIER       CLOUDY    63  59  88 S13       29.65F
GRAFTON        CLOUDY    64  59  82 SW14      29.68F
GWINNER        FAIR      63  52  67 SW17      29.79S
LANGDON        CLOUDY    61  59  94 SW15G22   29.65S
$$

CITY           SKY/WX    TMP DP  RH WIND       PRES   REMARKS
ABERDEEN       SUNNY     62  45  53 W16G24    29.83F
MOBRIDGE       CLOUDY    59  44  57 W20G30    29.79F
BUFFALO          N/A     49  45  86 W28       29.80F
RAPID CITY     PTSUNNY   61  34  36 W23G30    29.96F
GLASGOW        LGT RAIN  54  50  86 N23       29.98R
SIDNEY         CLOUDY    54  50  87 N24       29.78R
WOLF POINT     LGT RAIN  56  51  84 N18G30    29.90R
GLENDIVE       CLOUDY    52  48  87 NW22G31   29.86R
MILES CITY     LGT RAIN  50  49  96 NW20G35   29.95R FOG
BAKER          RAIN      50  32  50 W21G33    29.83S
$$

CITY           SKY/WX    TMP DP  RH WIND       PRES   REMARKS
BILLINGS       CLOUDY    52  34  50 NW23G29   30.16R
GREAT FALLS    MOSUNNY   53  36  52 N15       30.26S
$$





USA.gov is the U.S. government's official web portal to all federal, state and local government web resources and services.